Norwegian Jewel — C6TX6 — position and weather

sailwx.info

Track history (hours):
 
Tides and Currents Weather Stations Pressure Air Temp Water Temp Dewpoint Dewpoint Depression Visibility Wind Speed Wind Dir Waves Ship Positions

Norwegian Jewel

Last reported at 2020-Jan-17 11:19 UTC. Time now 2020-Jan-20 23:42 UTC.
Position S 42°35' E 174°10'.

Type: Passenger vessel. MMSI: 311827000.

Date/timePositionNaut miles runAvg speedWind from/ knotsBaromVisibWave heightAir tempDewpointWater temp
2020-Jan-17 11:19S 42°35' E 174°10'5720.3
2020-Jan-17 08:31S 41°41' E 174°35'3321.8
2020-Jan-17 07:00S 41°09' E 174°30'2311.6
2020-Jan-17 05:01S 41°16' E 174°00'1 1.5
2020-Jan-17 04:30S 41°17' E 173°60'0 0.0
2020-Jan-17 04:00S 41°17' E 173°60'0 0.0
2020-Jan-17 02:30S 41°17' E 173°60'0 0.0
2020-Jan-17 00:30S 41°17' E 173°60'5 0.7
2020-Jan-16 17:30S 41°14' E 174°06'714.0
2020-Jan-16 17:00S 41°10' E 174°13'3411.2
2020-Jan-16 14:00S 41°32' E 174°47'2120.7
2020-Jan-16 13:00S 41°41' E 175°12'1019.8
2020-Jan-16 12:30S 41°41' E 175°25'8419.6
2020-Jan-16 08:13S 40°43' E 176°46'83 5.7
2020-Jan-15 17:35S 39°24' E 177°20'12114.9
2020-Jan-15 09:26S 37°28' E 178°02'2021.7
2020-Jan-15 08:31S 37°26' E 177°37'7019.9
2020-Jan-15 05:00S 37°37' E 176°11'2 1.4
2020-Jan-15 03:30S 37°39' E 176°11'0 0.0
2020-Jan-15 02:30S 37°39' E 176°11'0 0.0
2020-Jan-15 01:30S 37°39' E 176°11'0 0.0
2020-Jan-15 00:00S 37°39' E 176°11'0 0.0
2020-Jan-14 21:30S 37°39' E 176°11'0 0.0
2020-Jan-14 21:00S 37°39' E 176°11'0 0.0
2020-Jan-14 19:30S 37°39' E 176°11'0 0.0
2020-Jan-14 18:30S 37°39' E 176°11'0 0.0
2020-Jan-14 18:00S 37°39' E 176°11'0 0.0
2020-Jan-14 17:30S 37°39' E 176°11'0 0.0
2020-Jan-14 17:00S 37°39' E 176°11'19 9.6
2020-Jan-14 15:00S 37°20' E 176°10'816.2
2020-Jan-14 14:30S 37°12' E 176°10'69 2.2
2020-Jan-13 07:33S 36°33' E 174°58'10 9.5
2020-Jan-13 06:29S 36°42' E 174°53'10 4.6
2020-Jan-13 04:20S 36°51' E 174°46'0 0.0
2020-Jan-13 01:05S 36°51' E 174°46'0 0.0
2020-Jan-13 00:20S 36°51' E 174°46'0 0.0
2020-Jan-12 16:08S 36°51' E 174°46'0 0.7
2020-Jan-12 16:00S 36°50' E 174°46'3 6.3
2020-Jan-12 15:30S 36°49' E 174°50'28 9.3
2020-Jan-12 12:30S 36°22' E 174°59'60 2.3
2020-Jan-11 11:00S 36°32' E 176°12'6614.6
2020-Jan-11 06:29S 37°39' E 176°11'0 0.0
2020-Jan-11 03:29S 37°39' E 176°11'0 0.0
2020-Jan-11 02:59S 37°39' E 176°11'0 0.0
2020-Jan-11 02:29S 37°39' E 176°11'0 0.0
2020-Jan-11 01:29S 37°39' E 176°11'0 0.0
2020-Jan-10 23:59S 37°39' E 176°11'0 0.0
2020-Jan-10 23:29S 37°39' E 176°11'25 4.3
2020-Jan-10 17:30S 37°28' E 176°40'815.1
2020-Jan-10 17:00S 37°27' E 176°49'2315.3
2020-Jan-10 15:30S 37°25' E 177°18'7414.4
2020-Jan-10 10:23S 37°58' E 178°42'26710.2
2020-Jan-09 08:15S 41°40' E 175°29'6614.0
2020-Jan-09 03:30S 41°14' E 174°07'6 6.0
2020-Jan-09 02:30S 41°17' E 174°00'0 0.0
2020-Jan-08 21:00S 41°17' E 174°00'0 0.0
2020-Jan-08 20:30S 41°17' E 174°00'0 0.0
2020-Jan-08 19:30S 41°17' E 174°00'0 0.0
2020-Jan-08 19:00S 41°17' E 174°00'2 2.0
2020-Jan-08 18:00S 41°15' E 174°02'713.9
2020-Jan-08 17:30S 41°13' E 174°10'16 8.0
2020-Jan-08 15:31S 41°12' E 174°32'511.0
2020-Jan-08 15:00S 41°18' E 174°32'1414.0
2020-Jan-08 14:00S 41°32' E 174°33'1716.7
2020-Jan-08 13:00S 41°48' E 174°36'2818.7
2020-Jan-08 11:30S 42°14' E 174°20'1920.9
2020-Jan-08 10:34S 42°31' E 174°08'4718.3
2020-Jan-08 08:00S 43°12' E 173°36'   050 / 101019.010.8 13.0
Track history (hours):
 
Tides and Currents Weather Stations Pressure Air Temp Water Temp Dewpoint Dewpoint Depression Visibility Wind Speed Wind Dir Waves Ship Positions

Norwegian Jewel

Last reported at 2020-Jan-17 11:19 UTC. Time now 2020-Jan-20 23:42 UTC.
Position S 42°35' E 174°10'.

Type: Passenger vessel. MMSI: 311827000.

Date/timePositionNaut miles runAvg speedWind from/ knotsBaromVisibWave heightAir tempDewpointWater temp
2020-Jan-17 11:19S 42°35' E 174°10'5720.3
2020-Jan-17 08:31S 41°41' E 174°35'3321.8
2020-Jan-17 07:00S 41°09' E 174°30'2311.6
2020-Jan-17 05:01S 41°16' E 174°00'1 1.5
2020-Jan-17 04:30S 41°17' E 173°60'0 0.0
2020-Jan-17 04:00S 41°17' E 173°60'0 0.0
2020-Jan-17 02:30S 41°17' E 173°60'0 0.0
2020-Jan-17 00:30S 41°17' E 173°60'5 0.7
2020-Jan-16 17:30S 41°14' E 174°06'714.0
2020-Jan-16 17:00S 41°10' E 174°13'3411.2
2020-Jan-16 14:00S 41°32' E 174°47'2120.7
2020-Jan-16 13:00S 41°41' E 175°12'1019.8
2020-Jan-16 12:30S 41°41' E 175°25'8419.6
2020-Jan-16 08:13S 40°43' E 176°46'83 5.7
2020-Jan-15 17:35S 39°24' E 177°20'12114.9
2020-Jan-15 09:26S 37°28' E 178°02'2021.7
2020-Jan-15 08:31S 37°26' E 177°37'7019.9
2020-Jan-15 05:00S 37°37' E 176°11'2 1.4
2020-Jan-15 03:30S 37°39' E 176°11'0 0.0
2020-Jan-15 02:30S 37°39' E 176°11'0 0.0
2020-Jan-15 01:30S 37°39' E 176°11'0 0.0
2020-Jan-15 00:00S 37°39' E 176°11'0 0.0
2020-Jan-14 21:30S 37°39' E 176°11'0 0.0
2020-Jan-14 21:00S 37°39' E 176°11'0 0.0
2020-Jan-14 19:30S 37°39' E 176°11'0 0.0
2020-Jan-14 18:30S 37°39' E 176°11'0 0.0
2020-Jan-14 18:00S 37°39' E 176°11'0 0.0
2020-Jan-14 17:30S 37°39' E 176°11'0 0.0
2020-Jan-14 17:00S 37°39' E 176°11'19 9.6
2020-Jan-14 15:00S 37°20' E 176°10'816.2
2020-Jan-14 14:30S 37°12' E 176°10'69 2.2
2020-Jan-13 07:33S 36°33' E 174°58'10 9.5
2020-Jan-13 06:29S 36°42' E 174°53'10 4.6
2020-Jan-13 04:20S 36°51' E 174°46'0 0.0
2020-Jan-13 01:05S 36°51' E 174°46'0 0.0
2020-Jan-13 00:20S 36°51' E 174°46'0 0.0
2020-Jan-12 16:08S 36°51' E 174°46'0 0.7
2020-Jan-12 16:00S 36°50' E 174°46'3 6.3
2020-Jan-12 15:30S 36°49' E 174°50'28 9.3
2020-Jan-12 12:30S 36°22' E 174°59'60 2.3
2020-Jan-11 11:00S 36°32' E 176°12'6614.6
2020-Jan-11 06:29S 37°39' E 176°11'0 0.0
2020-Jan-11 03:29S 37°39' E 176°11'0 0.0
2020-Jan-11 02:59S 37°39' E 176°11'0 0.0
2020-Jan-11 02:29S 37°39' E 176°11'0 0.0
2020-Jan-11 01:29S 37°39' E 176°11'0 0.0
2020-Jan-10 23:59S 37°39' E 176°11'0 0.0
2020-Jan-10 23:29S 37°39' E 176°11'25 4.3
2020-Jan-10 17:30S 37°28' E 176°40'815.1
2020-Jan-10 17:00S 37°27' E 176°49'2315.3
2020-Jan-10 15:30S 37°25' E 177°18'7414.4
2020-Jan-10 10:23S 37°58' E 178°42'26710.2
2020-Jan-09 08:15S 41°40' E 175°29'6614.0
2020-Jan-09 03:30S 41°14' E 174°07'6 6.0
2020-Jan-09 02:30S 41°17' E 174°00'0 0.0
2020-Jan-08 21:00S 41°17' E 174°00'0 0.0
2020-Jan-08 20:30S 41°17' E 174°00'0 0.0
2020-Jan-08 19:30S 41°17' E 174°00'0 0.0
2020-Jan-08 19:00S 41°17' E 174°00'2 2.0
2020-Jan-08 18:00S 41°15' E 174°02'713.9
2020-Jan-08 17:30S 41°13' E 174°10'16 8.0
2020-Jan-08 15:31S 41°12' E 174°32'511.0
2020-Jan-08 15:00S 41°18' E 174°32'1414.0
2020-Jan-08 14:00S 41°32' E 174°33'1716.7
2020-Jan-08 13:00S 41°48' E 174°36'2818.7
2020-Jan-08 11:30S 42°14' E 174°20'1920.9
2020-Jan-08 10:34S 42°31' E 174°08'4718.3
2020-Jan-08 08:00S 43°12' E 173°36'   050 / 101019.010.8 13.0

Dump ship's entire track history